#Datum;Uhrzeit;WR;Pac;DaySum;Status;WR;Pac;DaySum;Status;Pdc1;Udc;Temp;WR;Pac;DaySum;Status;Pdc1;Udc;Temp;WR;Pac;DaySum;Status;Pdc1;Udc;Temp;WR;Pac;DaySum;Status;Pdc1;Pdc2;Udc1;Udc2;Temp;WR;Pac;DaySum;Status;Pdc1;Pdc2;Udc1;Udc2;Temp;WR;Pac;DaySum;Status;Pdc1;Udc;Temp;WR;Pac;DaySum;Status;Pdc1;Udc;Temp;WR;Pac;DaySum;Status;Pdc1;Udc;Temp
04.11.21;23:55:00;1;406;12532;0;2;0;6649;0;0;0;0;3;0;4231;0;0;0;0;4;0;5652;0;0;0;0;5;0;13694;0;0;0;0;0;0;6;0;10229;0;0;0;0;0;0;7;0;8035;0;0;0;0;8;0;7926;0;0;0;0;9;0;4336;0;0;0;0
04.11.21;23:50:00;1;360;12498;0;2;0;6649;0;0;0;0;3;0;4231;0;0;0;0;4;0;5652;0;0;0;0;5;0;13694;0;0;0;0;0;0;6;0;10229;0;0;0;0;0;0;7;0;8035;0;0;0;0;8;0;7926;0;0;0;0;9;0;4336;0;0;0;0
04.11.21;23:45:00;1;397;12468;0;2;0;6649;0;0;0;0;3;0;4231;0;0;0;0;4;0;5652;0;0;0;0;5;0;13694;0;0;0;0;0;0;6;0;10229;0;0;0;0;0;0;7;0;8035;0;0;0;0;8;0;7926;0;0;0;0;9;0;4336;0;0;0;0
04.11.21;23:40:00;1;422;12435;0;2;0;6649;0;0;0;0;3;0;4231;0;0;0;0;4;0;5652;0;0;0;0;5;0;13694;0;0;0;0;0;0;6;0;10229;0;0;0;0;0;0;7;0;8035;0;0;0;0;8;0;7926;0;0;0;0;9;0;4336;0;0;0;0
04.11.21;23:35:00;1;406;12400;0;2;0;6649;0;0;0;0;3;0;4231;0;0;0;0;4;0;5652;0;0;0;0;5;0;13694;0;0;0;0;0;0;6;0;10229;0;0;0;0;0;0;7;0;8035;0;0;0;0;8;0;7926;0;0;0;0;9;0;4336;0;0;0;0
04.11.21;23:30:00;1;350;12366;0;2;0;6649;0;0;0;0;3;0;4231;0;0;0;0;4;0;5652;0;0;0;0;5;0;13694;0;0;0;0;0;0;6;0;10229;0;0;0;0;0;0;7;0;8035;0;0;0;0;8;0;7926;0;0;0;0;9;0;4336;0;0;0;0
04.11.21;23:25:00;1;351;12337;0;2;0;6649;0;0;0;0;3;0;4231;0;0;0;0;4;0;5652;0;0;0;0;5;0;13694;0;0;0;0;0;0;6;0;10229;0;0;0;0;0;0;7;0;8035;0;0;0;0;8;0;7926;0;0;0;0;9;0;4336;0;0;0;0
04.11.21;23:20:00;1;357;12307;0;2;0;6649;0;0;0;0;3;0;4231;0;0;0;0;4;0;5652;0;0;0;0;5;0;13694;0;0;0;0;0;0;6;0;10229;0;0;0;0;0;0;7;0;8035;0;0;0;0;8;0;7926;0;0;0;0;9;0;4336;0;0;0;0
04.11.21;23:15:00;1;365;12277;0;2;0;6649;0;0;0;0;3;0;4231;0;0;0;0;4;0;5652;0;0;0;0;5;0;13694;0;0;0;0;0;0;6;0;10229;0;0;0;0;0;0;7;0;8035;0;0;0;0;8;0;7926;0;0;0;0;9;0;4336;0;0;0;0
04.11.21;23:10:00;1;367;12247;0;2;0;6649;0;0;0;0;3;0;4231;0;0;0;0;4;0;5652;0;0;0;0;5;0;13694;0;0;0;0;0;0;6;0;10229;0;0;0;0;0;0;7;0;8035;0;0;0;0;8;0;7926;0;0;0;0;9;0;4336;0;0;0;0
04.11.21;23:05:00;1;345;12216;0;2;0;6649;0;0;0;0;3;0;4231;0;0;0;0;4;0;5652;0;0;0;0;5;0;13694;0;0;0;0;0;0;6;0;10229;0;0;0;0;0;0;7;0;8035;0;0;0;0;8;0;7926;0;0;0;0;9;0;4336;0;0;0;0
04.11.21;23:00:00;1;341;12187;0;2;0;6649;0;0;0;0;3;0;4231;0;0;0;0;4;0;5652;0;0;0;0;5;0;13694;0;0;0;0;0;0;6;0;10229;0;0;0;0;0;0;7;0;8035;0;0;0;0;8;0;7926;0;0;0;0;9;0;4336;0;0;0;0
04.11.21;22:55:00;1;384;12159;0;2;0;6649;0;0;0;0;3;0;4231;0;0;0;0;4;0;5652;0;0;0;0;5;0;13694;2;0;0;0;0;0;6;0;10229;2;0;0;0;0;0;7;0;8035;0;0;0;0;8;0;7926;0;0;0;0;9;0;4336;0;0;0;0
04.11.21;22:50:00;1;355;12127;0;2;0;6649;0;0;0;0;3;0;4231;0;0;0;0;4;0;5652;0;0;0;0;5;0;13694;2;0;0;0;0;0;6;0;10229;2;0;0;0;0;0;7;0;8035;0;0;0;0;8;0;7926;0;0;0;0;9;0;4336;0;0;0;0
04.11.21;22:45:00;1;400;12097;0;2;0;6649;0;0;0;0;3;0;4231;0;0;0;0;4;0;5652;0;0;0;0;5;0;13694;2;0;0;0;0;0;6;0;10229;2;0;0;0;0;0;7;0;8035;0;0;0;0;8;0;7926;0;0;0;0;9;0;4336;0;0;0;0
04.11.21;22:40:00;1;393;12064;0;2;0;6649;0;0;0;0;3;0;4231;0;0;0;0;4;0;5652;0;0;0;0;5;0;13694;2;0;0;0;0;0;6;0;10229;2;0;0;0;0;0;7;0;8035;0;0;0;0;8;0;7926;0;0;0;0;9;0;4336;0;0;0;0
04.11.21;22:35:00;1;325;12033;0;2;0;6649;0;0;0;0;3;0;4231;0;0;0;0;4;0;5652;0;0;0;0;5;0;13694;2;0;0;0;0;0;6;0;10229;2;0;0;0;0;0;7;0;8035;0;0;0;0;8;0;7926;0;0;0;0;9;0;4336;0;0;0;0
04.11.21;22:30:00;1;378;12005;0;2;0;6649;0;0;0;0;3;0;4231;0;0;0;0;4;0;5652;0;0;0;0;5;0;13694;2;0;0;0;0;0;6;0;10229;2;0;0;0;0;0;7;0;8035;0;0;0;0;8;0;7926;0;0;0;0;9;0;4336;0;0;0;0
04.11.21;22:25:00;1;407;11974;0;2;0;6649;0;0;0;0;3;0;4231;0;0;0;0;4;0;5652;0;0;0;0;5;0;13694;2;0;0;0;0;0;6;0;10229;2;0;0;0;0;0;7;0;8035;0;0;0;0;8;0;7926;0;0;0;0;9;0;4336;0;0;0;0
04.11.21;22:20:00;1;499;11938;0;2;0;6649;0;0;0;0;3;0;4231;0;0;0;0;4;0;5652;0;0;0;0;5;0;13694;2;0;0;0;0;0;6;0;10229;2;0;0;0;0;0;7;0;8035;0;0;0;0;8;0;7926;0;0;0;0;9;0;4336;0;0;0;0
04.11.21;22:15:00;1;474;11896;0;2;0;6649;0;0;0;0;3;0;4231;0;0;0;0;4;0;5652;0;0;0;0;5;0;13694;2;0;0;0;0;0;6;0;10229;2;0;0;0;0;0;7;0;8035;0;0;0;0;8;0;7926;0;0;0;0;9;0;4336;0;0;0;0
04.11.21;22:10:00;1;471;11857;0;2;0;6649;0;0;0;0;3;0;4231;0;0;0;0;4;0;5652;0;0;0;0;5;0;13694;2;0;0;0;0;0;6;0;10229;2;0;0;0;0;0;7;0;8035;0;0;0;0;8;0;7926;0;0;0;0;9;0;4336;0;0;0;0
04.11.21;22:05:00;1;471;11817;0;2;0;6649;0;0;0;0;3;0;4231;0;0;0;0;4;0;5652;0;0;0;0;5;0;13694;2;0;0;0;0;0;6;0;10229;2;0;0;0;0;0;7;0;8035;0;0;0;0;8;0;7926;0;0;0;0;9;0;4336;0;0;0;0
04.11.21;22:00:00;1;486;11778;0;2;0;6649;0;0;0;0;3;0;4231;0;0;0;0;4;0;5652;0;0;0;0;5;0;13694;2;0;0;0;0;0;6;0;10229;2;0;0;0;0;0;7;0;8035;0;0;0;0;8;0;7926;0;0;0;0;9;0;4336;0;0;0;0
04.11.21;21:55:00;1;480;11738;0;2;0;6649;0;0;0;0;3;0;4231;0;0;0;0;4;0;5652;0;0;0;0;5;0;13694;2;0;0;0;0;0;6;0;10229;2;0;0;0;0;0;7;0;8035;0;0;0;0;8;0;7926;0;0;0;0;9;0;4336;0;0;0;0
04.11.21;21:50:00;1;477;11699;0;2;0;6649;0;0;0;0;3;0;4231;0;0;0;0;4;0;5652;0;0;0;0;5;0;13694;2;0;0;0;0;0;6;0;10229;2;0;0;0;0;0;7;0;8035;0;0;0;0;8;0;7926;0;0;0;0;9;0;4336;0;0;0;0
04.11.21;21:45:00;1;521;11658;0;2;0;6649;0;0;0;0;3;0;4231;0;0;0;0;4;0;5652;0;0;0;0;5;0;13694;2;0;0;0;0;0;6;0;10229;2;0;0;0;0;0;7;0;8035;0;0;0;0;8;0;7926;0;0;0;0;9;0;4336;0;0;0;0
04.11.21;21:40:00;1;520;11615;0;2;0;6649;0;0;0;0;3;0;4231;0;0;0;0;4;0;5652;0;0;0;0;5;0;13694;2;0;0;0;0;0;6;0;10229;2;0;0;0;0;0;7;0;8035;0;0;0;0;8;0;7926;0;0;0;0;9;0;4336;0;0;0;0
04.11.21;21:35:00;1;536;11571;0;2;0;6649;0;0;0;0;3;0;4231;0;0;0;0;4;0;5652;0;0;0;0;5;0;13694;2;0;0;0;0;0;6;0;10229;2;0;0;0;0;0;7;0;8035;0;0;0;0;8;0;7926;0;0;0;0;9;0;4336;0;0;0;0
04.11.21;21:30:00;1;564;11527;0;2;0;6649;0;0;0;0;3;0;4231;0;0;0;0;4;0;5652;0;0;0;0;5;0;13694;2;0;0;0;0;0;6;0;10229;2;0;0;0;0;0;7;0;8035;0;0;0;0;8;0;7926;0;0;0;0;9;0;4336;0;0;0;0
04.11.21;21:25:00;1;448;11480;0;2;0;6649;0;0;0;0;3;0;4231;0;0;0;0;4;0;5652;0;0;0;0;5;0;13694;2;0;0;0;0;0;6;0;10229;2;0;0;0;0;0;7;0;8035;0;0;0;0;8;0;7926;0;0;0;0;9;0;4336;0;0;0;0
04.11.21;21:20:00;1;461;11442;0;2;0;6649;0;0;0;0;3;0;4231;0;0;0;0;4;0;5652;0;0;0;0;5;0;13694;2;0;0;0;0;0;6;0;10229;2;0;0;0;0;0;7;0;8035;0;0;0;0;8;0;7926;0;0;0;0;9;0;4336;0;0;0;0
04.11.21;21:15:00;1;473;11403;0;2;0;6649;0;0;0;0;3;0;4231;0;0;0;0;4;0;5652;0;0;0;0;5;0;13694;2;0;0;0;0;0;6;0;10229;2;0;0;0;0;0;7;0;8035;0;0;0;0;8;0;7926;0;0;0;0;9;0;4336;0;0;0;0
04.11.21;21:10:00;1;464;11364;0;2;0;6649;0;0;0;0;3;0;4231;0;0;0;0;4;0;5652;0;0;0;0;5;0;13694;2;0;0;0;0;0;6;0;10229;2;0;0;0;0;0;7;0;8035;0;0;0;0;8;0;7926;0;0;0;0;9;0;4336;0;0;0;0
04.11.21;21:05:00;1;425;11325;0;2;0;6649;0;0;0;0;3;0;4231;0;0;0;0;4;0;5652;0;0;0;0;5;0;13694;2;0;0;0;0;0;6;0;10229;2;0;0;0;0;0;7;0;8035;0;0;0;0;8;0;7926;0;0;0;0;9;0;4336;0;0;0;0
04.11.21;21:00:00;1;471;11289;0;2;0;6649;0;0;0;0;3;0;4231;0;0;0;0;4;0;5652;0;0;0;0;5;0;13694;2;0;0;0;0;0;6;0;10229;2;0;0;0;0;0;7;0;8035;0;0;0;0;8;0;7926;0;0;0;0;9;0;4336;0;0;0;0
04.11.21;20:55:00;1;408;11248;0;2;0;6649;0;0;0;0;3;0;4231;0;0;0;0;4;0;5652;0;0;0;0;5;0;13694;2;0;0;0;0;0;6;0;10229;2;0;0;0;0;0;7;0;8035;0;0;0;0;8;0;7926;0;0;0;0;9;0;4336;0;0;0;0
04.11.21;20:50:00;1;440;11213;0;2;0;6649;0;0;0;0;3;0;4231;0;0;0;0;4;0;5652;0;0;0;0;5;0;13694;2;0;0;0;0;0;6;0;10229;2;0;0;0;0;0;7;0;8035;0;0;0;0;8;0;7926;0;0;0;0;9;0;4336;0;0;0;0
04.11.21;20:45:00;1;464;11176;0;2;0;6649;0;0;0;0;3;0;4231;0;0;0;0;4;0;5652;0;0;0;0;5;0;13694;2;0;0;0;0;0;6;0;10229;2;0;0;0;0;0;7;0;8035;0;0;0;0;8;0;7926;0;0;0;0;9;0;4336;0;0;0;0
04.11.21;20:40:00;1;485;11137;0;2;0;6649;0;0;0;0;3;0;4231;0;0;0;0;4;0;5652;0;0;0;0;5;0;13694;2;0;0;0;0;0;6;0;10229;2;0;0;0;0;0;7;0;8035;0;0;0;0;8;0;7926;0;0;0;0;9;0;4336;0;0;0;0
04.11.21;20:35:00;1;485;11097;0;2;0;6649;0;0;0;0;3;0;4231;0;0;0;0;4;0;5652;0;0;0;0;5;0;13694;2;0;0;0;0;0;6;0;10229;2;0;0;0;0;0;7;0;8035;0;0;0;0;8;0;7926;0;0;0;0;9;0;4336;0;0;0;0
04.11.21;20:30:00;1;492;11056;0;2;0;6649;0;0;0;0;3;0;4231;0;0;0;0;4;0;5652;0;0;0;0;5;0;13694;2;0;0;0;0;0;6;0;10229;2;0;0;0;0;0;7;0;8035;0;0;0;0;8;0;7926;0;0;0;0;9;0;4336;0;0;0;0
04.11.21;20:25:00;1;1121;10993;0;2;0;6649;0;0;0;0;3;0;4231;0;0;0;0;4;0;5652;0;0;0;0;5;0;13694;2;0;0;0;0;0;6;0;10229;2;0;0;0;0;0;7;0;8035;0;0;0;0;8;0;7926;0;0;0;0;9;0;4336;0;0;0;0
04.11.21;20:20:00;1;1859;10904;0;2;0;6649;0;0;0;0;3;0;4231;0;0;0;0;4;0;5652;0;0;0;0;5;0;13694;2;0;0;0;0;0;6;0;10229;2;0;0;0;0;0;7;0;8035;0;0;0;0;8;0;7926;0;0;0;0;9;0;4336;0;0;0;0
04.11.21;20:15:00;1;2222;10740;0;2;0;6649;0;0;0;0;3;0;4231;0;0;0;0;4;0;5652;0;0;0;0;5;0;13694;2;0;0;0;0;0;6;0;10229;2;0;0;0;0;0;7;0;8035;0;0;0;0;8;0;7926;0;0;0;0;9;0;4336;0;0;0;0
04.11.21;20:10:00;1;2229;10554;0;2;0;6649;0;0;0;0;3;0;4231;0;0;0;0;4;0;5652;0;0;0;0;5;0;13694;2;0;0;0;0;0;6;0;10229;2;0;0;0;0;0;7;0;8035;0;0;0;0;8;0;7926;0;0;0;0;9;0;4336;0;0;0;0
04.11.21;20:05:00;1;2287;10367;0;2;0;6649;0;0;0;0;3;0;4231;0;0;0;0;4;0;5652;0;0;0;0;5;0;13694;2;0;0;0;0;0;6;0;10229;2;0;0;0;0;0;7;0;8035;0;0;0;0;8;0;7926;0;0;0;0;9;0;4336;0;0;0;0
04.11.21;20:00:00;1;452;10193;0;2;0;6649;0;0;0;0;3;0;4231;0;0;0;0;4;0;5652;0;0;0;0;5;0;13694;2;0;0;0;0;0;6;0;10229;2;0;0;0;0;0;7;0;8035;0;0;0;0;8;0;7926;0;0;0;0;9;0;4336;0;0;0;0
04.11.21;19:55:00;1;450;10155;0;2;0;6649;0;0;0;0;3;0;4231;0;0;0;0;4;0;5652;0;0;0;0;5;0;13694;2;0;0;0;0;0;6;0;10229;2;0;0;0;0;0;7;0;8035;0;0;0;0;8;0;7926;0;0;0;0;9;0;4336;0;0;0;0
04.11.21;19:50:00;1;398;10118;0;2;0;6649;0;0;0;0;3;0;4231;0;0;0;0;4;0;5652;0;0;0;0;5;0;13694;2;0;0;0;0;0;6;0;10229;2;0;0;0;0;0;7;0;8035;0;0;0;0;8;0;7926;0;0;0;0;9;0;4336;0;0;0;0
04.11.21;19:45:00;1;453;10081;0;2;0;6649;0;0;0;0;3;0;4231;0;0;0;0;4;0;5652;0;0;0;0;5;0;13694;2;0;0;0;0;0;6;0;10229;2;0;0;0;0;0;7;0;8035;0;0;0;0;8;0;7926;0;0;0;0;9;0;4336;0;0;0;0
04.11.21;19:40:00;1;874;10042;0;2;0;6649;0;0;0;0;3;0;4231;0;0;0;0;4;0;5652;0;0;0;0;5;0;13694;2;0;0;0;0;0;6;0;10229;2;0;0;0;0;0;7;0;8035;0;0;0;0;8;0;7926;0;0;0;0;9;0;4336;0;0;0;0
04.11.21;19:35:00;1;1055;9970;0;2;0;6649;0;0;0;0;3;0;4231;0;0;0;0;4;0;5652;0;0;0;0;5;0;13694;2;0;0;0;0;0;6;0;10229;2;0;0;0;0;0;7;0;8035;0;0;0;0;8;0;7926;0;0;0;0;9;0;4336;0;0;0;0
04.11.21;19:30:00;1;512;9882;0;2;0;6649;0;0;0;0;3;0;4231;0;0;0;0;4;0;5652;0;0;0;0;5;0;13694;2;0;0;0;0;0;6;0;10229;2;0;0;0;0;0;7;0;8035;0;0;0;0;8;0;7926;0;0;0;0;9;0;4336;0;0;0;0
04.11.21;19:25:00;1;505;9839;0;2;0;6649;0;0;0;0;3;0;4231;0;0;0;0;4;0;5652;0;0;0;0;5;0;13694;2;0;0;0;0;0;6;0;10229;2;0;0;0;0;0;7;0;8035;0;0;0;0;8;0;7926;0;0;0;0;9;0;4336;0;0;0;0
04.11.21;19:20:00;1;1631;9797;0;2;0;6649;0;0;0;0;3;0;4231;0;0;0;0;4;0;5652;0;0;0;0;5;0;13694;2;0;0;0;0;0;6;0;10229;2;0;0;0;0;0;7;0;8035;0;0;0;0;8;0;7926;0;0;0;0;9;0;4336;0;0;0;0
04.11.21;19:15:00;1;2247;9660;0;2;0;6649;0;0;0;0;3;0;4231;0;0;0;0;4;0;5652;0;0;0;0;5;0;13694;2;0;0;0;0;0;6;0;10229;2;0;0;0;0;0;7;0;8035;0;0;0;0;8;0;7926;0;0;0;0;9;0;4336;0;0;0;0
04.11.21;19:10:00;1;2326;9475;0;2;0;6649;0;0;0;0;3;0;4231;0;0;0;0;4;0;5652;0;0;0;0;5;0;13694;2;0;0;0;0;0;6;0;10229;2;0;0;0;0;0;7;0;8035;0;0;0;0;8;0;7926;0;0;0;0;9;0;4336;0;0;0;0
04.11.21;19:05:00;1;2401;9279;0;2;0;6649;0;0;0;0;3;0;4231;0;0;0;0;4;0;5652;0;0;0;0;5;0;13694;2;0;0;0;0;0;6;0;10229;2;0;0;0;0;0;7;0;8035;0;0;0;0;8;0;7926;0;0;0;0;9;0;4336;0;0;0;0
04.11.21;19:00:00;1;473;9103;0;2;0;6649;0;0;0;0;3;0;4231;0;0;0;0;4;0;5652;0;0;0;0;5;0;13694;2;0;0;0;0;0;6;0;10229;2;0;0;0;0;0;7;0;8035;0;0;0;0;8;0;7926;0;0;0;0;9;0;4336;0;0;0;0
04.11.21;18:55:00;1;570;9064;0;2;0;6649;0;0;0;0;3;0;4231;0;0;0;0;4;0;5652;0;0;0;0;5;0;13694;2;0;0;0;0;0;6;0;10229;2;0;0;0;0;0;7;0;8035;0;0;0;0;8;0;7926;0;0;0;0;9;0;4336;0;0;0;0
04.11.21;18:50:00;1;553;9016;0;2;0;6649;0;0;0;0;3;0;4231;0;0;0;0;4;0;5652;0;0;0;0;5;0;13694;2;0;0;0;0;0;6;0;10229;2;0;0;0;0;0;7;0;8035;0;0;0;0;8;0;7926;0;0;0;0;9;0;4336;0;0;0;0
04.11.21;18:45:00;1;522;8967;0;2;0;6649;0;0;0;0;3;0;4231;0;0;0;0;4;0;5652;0;0;0;0;5;0;13694;2;0;0;0;0;0;6;0;10229;2;0;0;0;0;0;7;0;8035;0;0;0;0;8;0;7926;0;0;0;0;9;0;4336;0;0;0;0
04.11.21;18:40:00;1;460;8924;0;2;0;6649;0;0;0;0;3;0;4231;0;0;0;0;4;0;5652;0;0;0;0;5;0;13694;2;0;0;0;0;0;6;0;10229;2;0;0;0;0;0;7;0;8035;0;0;0;0;8;0;7926;0;0;0;0;9;0;4336;0;0;0;0
04.11.21;18:35:00;1;490;8886;0;2;0;6649;0;0;0;0;3;0;4231;0;0;0;0;4;0;5652;0;0;0;0;5;0;13694;2;0;0;0;0;0;6;0;10229;2;0;0;0;0;0;7;0;8035;0;0;0;0;8;0;7926;0;0;0;0;9;0;4336;0;0;0;0
04.11.21;18:30:00;1;477;8845;0;2;0;6649;0;0;0;0;3;0;4231;0;0;0;0;4;0;5652;0;0;0;0;5;0;13694;2;0;0;0;0;0;6;0;10229;2;0;0;0;0;0;7;0;8035;0;0;0;0;8;0;7926;0;0;0;0;9;0;4336;0;0;0;0
04.11.21;18:25:00;1;492;8805;0;2;0;6649;0;0;0;0;3;0;4231;0;0;0;0;4;0;5652;0;0;0;0;5;0;13694;2;0;0;0;0;0;6;0;10229;2;0;0;0;0;0;7;0;8035;0;0;0;0;8;0;7926;0;0;0;0;9;0;4336;0;0;0;0
04.11.21;18:20:00;1;514;8763;0;2;0;6649;0;0;0;0;3;0;4231;0;0;0;0;4;0;5652;0;0;0;0;5;0;13694;2;0;0;0;0;0;6;0;10229;2;0;0;0;0;0;7;0;8035;0;0;0;0;8;0;7926;0;0;0;0;9;0;4336;0;0;0;0
04.11.21;18:15:00;1;478;8721;0;2;0;6649;0;0;0;0;3;0;4231;0;0;0;0;4;0;5652;0;0;0;0;5;0;13694;2;0;0;0;0;0;6;0;10229;2;0;0;0;0;0;7;0;8035;0;0;0;0;8;0;7926;0;0;0;0;9;0;4336;0;0;0;0
04.11.21;18:10:00;1;487;8680;0;2;0;6649;0;0;0;0;3;0;4231;0;0;0;0;4;0;5652;0;0;0;0;5;0;13694;2;0;0;0;0;0;6;0;10229;2;0;0;0;0;0;7;0;8035;0;0;0;0;8;0;7926;0;0;0;0;9;0;4336;0;0;0;0
04.11.21;18:05:00;1;496;8642;0;2;0;6649;0;0;0;0;3;0;4231;0;0;0;0;4;0;5652;0;0;0;0;5;0;13694;2;0;0;0;0;0;6;0;10229;2;0;0;0;0;0;7;0;8035;0;0;0;0;8;0;7926;0;0;0;0;9;0;4336;0;0;0;0
04.11.21;18:00:00;1;488;8600;0;2;0;6649;0;0;0;0;3;0;4231;0;0;0;0;4;0;5652;0;0;0;0;5;0;13694;2;0;0;0;0;0;6;0;10229;2;0;0;0;0;0;7;0;8035;0;0;0;0;8;0;7926;0;0;0;0;9;0;4336;0;0;0;0
04.11.21;17:55:00;1;442;8559;0;2;0;6649;0;0;0;0;3;0;4231;0;0;0;0;4;0;5652;0;0;0;0;5;0;13694;2;0;0;0;0;0;6;0;10229;2;0;0;0;0;0;7;0;8035;0;0;0;0;8;0;7926;0;0;0;0;9;0;4336;0;0;0;0
04.11.21;17:50:00;1;839;8522;0;2;0;6649;0;0;0;0;3;0;4231;0;0;0;0;4;0;5652;0;0;0;0;5;0;13694;2;0;0;0;0;0;6;0;10229;2;0;0;0;0;0;7;0;8035;0;0;0;0;8;0;7926;0;0;0;0;9;0;4336;0;0;0;0
04.11.21;17:45:00;1;820;8437;0;2;0;6649;0;0;0;0;3;0;4231;0;0;0;0;4;0;5652;0;0;0;0;5;0;13694;2;0;0;0;0;0;6;0;10229;2;0;0;0;0;0;7;0;8035;0;0;0;0;8;0;7926;0;0;0;0;9;0;4336;0;0;0;0
04.11.21;17:40:00;1;1270;8371;0;2;0;6649;0;0;0;0;3;0;4231;0;0;0;0;4;0;5652;0;0;0;0;5;0;13694;2;0;0;0;0;0;6;0;10229;2;0;0;0;0;0;7;0;8035;0;0;0;0;8;0;7926;0;0;0;0;9;0;4336;0;0;0;0
04.11.21;17:35:00;1;1086;8248;0;2;0;6649;0;0;0;0;3;0;4231;0;0;0;0;4;0;5652;0;0;0;0;5;0;13694;2;0;0;0;0;0;6;0;10229;2;0;0;0;0;0;7;0;8035;0;0;0;0;8;0;7926;0;0;0;0;9;0;4336;0;0;0;0
04.11.21;17:30:00;1;937;8152;0;2;0;6649;0;0;0;0;3;0;4231;0;0;0;0;4;0;5652;0;0;0;0;5;0;13694;2;0;0;0;0;0;6;0;10229;2;0;0;0;0;0;7;0;8035;0;0;0;0;8;0;7926;0;0;0;0;9;0;4336;0;0;0;0
04.11.21;17:25:00;1;1108;8073;0;2;0;6649;0;0;0;0;3;0;4231;0;0;0;0;4;0;5652;0;0;0;0;5;0;13694;2;0;0;0;0;0;6;0;10229;2;0;0;0;0;0;7;0;8035;0;0;0;0;8;0;7926;0;0;0;0;9;0;4336;0;0;0;0
04.11.21;17:20:00;1;476;7987;0;2;0;6649;0;0;0;0;3;0;4231;0;0;0;0;4;0;5652;0;0;0;0;5;0;13694;2;0;0;0;0;0;6;0;10229;2;0;0;0;0;0;7;0;8035;0;0;0;0;8;0;7926;0;0;0;0;9;0;4336;0;0;0;0
04.11.21;17:15:00;1;1064;7931;0;2;0;6649;0;0;0;0;3;0;4231;0;0;0;0;4;0;5652;0;0;0;0;5;0;13694;2;0;0;0;0;0;6;0;10229;2;0;0;0;0;0;7;0;8035;0;0;0;0;8;0;7926;0;0;0;0;9;0;4336;0;0;0;0
04.11.21;17:10:00;1;433;7861;0;2;0;6649;0;0;0;0;3;0;4231;0;0;0;0;4;0;5652;0;0;0;0;5;0;13694;2;0;0;0;0;0;6;0;10229;2;0;0;0;0;0;7;0;8035;0;0;0;0;8;0;7926;0;0;0;0;9;0;4336;0;0;0;0
04.11.21;17:05:00;1;448;7824;0;2;0;6649;0;0;0;0;3;0;4231;0;0;0;0;4;0;5652;0;0;0;0;5;0;13694;2;0;0;0;0;0;6;0;10229;2;0;0;0;0;0;7;0;8035;0;0;0;0;8;0;7926;0;0;0;0;9;0;4336;0;0;0;0
04.11.21;17:00:00;1;356;7772;0;2;0;6649;0;0;0;0;3;0;4231;0;0;36;2;4;0;5652;0;0;0;0;5;0;13694;2;0;0;0;0;0;6;0;10229;2;0;0;0;0;0;7;0;8035;0;0;0;0;8;0;7926;0;0;0;0;9;0;4336;0;0;0;0
04.11.21;16:55:00;1;336;7743;0;2;0;6649;0;0;179;9;3;0;4231;6;0;291;17;4;0;5652;0;0;42;9;5;0;13694;2;0;0;0;0;0;6;0;10229;2;0;0;0;0;0;7;0;8035;0;0;0;0;8;0;7926;0;0;0;0;9;0;4336;0;0;0;0
04.11.21;16:50:00;1;363;7713;0;2;0;6649;6;0;312;14;3;0;4231;6;0;371;17;4;0;5652;1;0;102;14;5;0;13694;2;0;0;147;147;13;6;0;10229;2;0;0;45;45;4;7;0;8035;0;0;0;3;8;0;7926;0;0;39;3;9;0;4336;0;0;43;2
04.11.21;16:45:00;1;316;7684;0;2;0;6649;6;0;347;14;3;0;4231;3;2;421;17;4;0;5652;1;0;148;14;5;0;13694;23;0;0;366;389;28;6;0;10229;26;0;3;488;479;25;7;0;8035;6;0;287;18;8;0;7926;6;0;293;18;9;0;4336;6;0;310;14
04.11.21;16:40:00;1;310;7658;0;2;0;6649;6;0;355;14;3;0;4231;6;2;431;17;4;0;5652;1;0;161;14;5;4;13694;1;0;0;389;562;28;6;0;10229;26;0;0;486;483;26;7;0;8035;6;0;302;19;8;0;7926;6;0;307;18;9;0;4336;6;0;327;14
04.11.21;16:35:00;1;316;7632;0;2;0;6649;6;0;387;15;3;2;4231;6;3;470;17;4;0;5652;1;0;208;15;5;12;13694;1;0;2;408;646;28;6;0;10229;26;0;0;570;558;26;7;0;8035;6;0;409;19;8;0;7926;6;0;414;18;9;0;4336;6;2;414;14
04.11.21;16:30:00;1;520;7604;0;2;5;6649;6;11;402;15;3;1;4231;6;7;510;17;4;4;5652;3;4;200;15;5;109;13691;4;24;32;369;585;29;6;80;10229;4;0;22;513;497;27;7;0;8035;6;6;451;19;8;4;7926;6;12;432;18;9;1;4336;6;2;501;14
04.11.21;16:25:00;1;762;7554;0;2;0;6648;6;0;414;15;3;4;4231;6;15;475;18;4;4;5651;3;4;200;15;5;126;13682;4;37;39;369;585;29;6;93;10222;4;0;27;513;497;27;7;3;8035;6;4;459;19;8;1;7925;6;5;462;19;9;0;4336;4;5;508;14
04.11.21;16:20:00;1;846;7488;0;2;11;6648;3;22;398;15;3;2;4231;6;8;518;18;4;12;5651;3;13;200;15;5;137;13671;4;40;48;369;585;29;6;100;10214;4;3;35;513;497;27;7;1;8035;6;11;445;19;8;2;7925;6;4;469;19;9;1;4335;3;9;491;15
04.11.21;16:15:00;1;806;7417;0;2;51;6647;4;84;363;16;3;3;4230;4;9;522;18;4;16;5650;3;16;200;16;5;178;13660;4;63;63;369;585;29;6;131;10206;4;19;47;513;497;27;7;7;8035;6;18;444;20;8;7;7925;6;10;472;19;9;4;4335;6;13;489;15
04.11.21;16:10:00;1;800;7350;0;2;78;6643;4;109;361;16;3;14;4230;3;23;509;18;4;44;5648;3;46;200;16;5;213;13645;4;89;80;369;585;29;6;156;10195;4;36;60;513;497;27;7;25;8034;6;36;439;20;8;24;7925;6;37;439;19;9;4;4335;6;8;541;15
04.11.21;16:05:00;1;711;7284;0;2;9;6637;3;16;406;16;3;4;4229;6;17;484;18;4;11;5645;3;12;200;16;5;143;13627;4;41;49;369;585;29;6;106;10182;4;7;35;513;497;27;7;8;8032;6;20;446;20;8;3;7923;6;10;477;20;9;1;4335;6;6;525;15
04.11.21;16:00:00;1;334;7237;0;2;13;6636;6;24;396;16;3;2;4228;6;7;519;19;4;5;5644;3;6;200;16;5;143;13615;4;44;50;369;585;30;6;106;10173;4;3;35;513;497;28;7;2;8032;6;8;477;20;8;3;7922;6;8;478;20;9;2;4335;6;5;527;15
04.11.21;15:55:00;1;249;7210;0;2;93;6635;4;129;364;17;3;37;4228;6;59;489;19;4;57;5643;3;60;200;16;5;250;13603;4;105;101;369;585;30;6;182;10164;4;45;77;513;497;28;7;55;8032;4;89;436;21;8;61;7922;4;93;435;20;9;3;4334;4;8;539;16
04.11.21;15:50:00;1;255;7188;0;2;71;6627;4;104;359;17;3;5;4225;6;11;535;19;4;46;5639;3;48;200;16;5;214;13582;4;87;85;369;585;30;6;160;10148;4;39;60;513;497;28;7;59;8027;4;92;387;21;8;56;7917;4;92;414;20;9;17;4334;3;28;493;16
04.11.21;15:45:00;1;270;7167;0;2;47;6621;4;80;358;17;3;4;4225;6;9;521;19;4;16;5635;3;17;200;16;5;164;13565;4;53;59;369;585;30;6;122;10135;4;11;43;513;497;28;7;9;8022;3;12;477;21;8;7;7912;4;13;478;20;9;3;4333;6;12;493;16
04.11.21;15:40:00;1;281;7146;0;2;59;6617;4;94;362;17;3;5;4224;6;11;531;19;4;33;5633;3;34;200;17;5;190;13550;4;74;71;369;585;30;6;142;10125;4;27;55;513;497;28;7;46;8021;4;75;355;21;8;49;7912;4;77;365;21;9;4;4332;6;8;541;16
04.11.21;15:35:00;1;305;7122;0;2;20;6612;4;34;393;17;3;4;4224;6;11;519;20;4;8;5631;3;8;200;17;5;158;13534;4;52;57;369;585;30;6;117;10113;4;13;43;513;497;28;7;7;8017;3;16;480;21;8;13;7908;3;26;452;21;9;2;4332;6;8;530;17
04.11.21;15:30:00;1;278;7098;0;2;11;6610;4;22;395;18;3;4;4224;4;15;487;20;4;16;5630;3;17;200;17;5;139;13522;4;40;47;369;585;30;6;104;10103;4;5;34;513;497;28;7;1;8017;6;7;476;22;8;4;7906;6;7;477;21;9;1;4332;6;5;526;17
04.11.21;15:25:00;1;291;7074;0;2;53;6609;4;89;360;18;3;10;4223;3;22;491;20;4;15;5629;3;15;198;17;5;179;13510;4;64;61;369;585;30;6;132;10095;4;18;49;513;497;28;7;14;8016;6;27;455;22;8;16;7906;6;29;452;22;9;2;4332;4;6;523;17
04.11.21;15:20:00;1;333;7050;0;2;69;6605;4;104;366;19;3;7;4222;6;12;534;20;4;38;5627;3;40;198;17;5;221;13494;4;90;84;369;585;30;6;160;10084;4;36;66;513;497;28;7;53;8015;4;94;435;22;8;54;7904;4;93;431;22;9;11;4331;3;19;520;17
04.11.21;15:15:00;1;395;7021;0;2;105;6599;4;143;365;19;3;26;4222;6;43;544;21;4;66;5624;3;68;202;18;5;288;13476;4;127;112;369;585;30;6;208;10070;4;62;88;513;497;28;7;87;8011;4;123;439;23;8;85;7900;4;123;445;22;9;13;4330;6;19;557;18
04.11.21;15:10:00;1;354;6990;0;2;128;6590;4;164;371;19;3;66;4219;4;108;507;21;4;83;5618;5;86;202;18;5;318;13451;4;137;123;369;585;30;6;233;10052;4;75;99;513;497;28;7;125;8003;4;167;456;23;8;124;7892;4;168;461;22;9;36;4329;4;51;522;18
04.11.21;15:05:00;1;369;6961;0;2;125;6580;4;161;366;20;3;71;4214;4;107;467;22;4;83;5611;3;87;199;18;5;310;13425;4;137;117;369;585;31;6;229;10032;4;70;97;513;497;28;7;114;7993;4;146;395;23;8;116;7882;4;152;421;23;9;23;4326;6;34;522;19
04.11.21;15:00:00;1;394;6929;0;2;152;6569;4;192;366;20;3;89;4208;4;129;492;22;4;109;5604;3;113;215;18;5;358;13399;4;165;148;369;585;31;6;265;10013;4;91;116;513;497;28;7;139;7983;4;180;419;23;8;139;7872;4;172;422;23;9;60;4324;6;87;501;19
04.11.21;14:55:00;1;376;6896;0;2;185;6557;4;223;364;20;3;108;4200;4;147;503;22;4;138;5596;5;143;226;19;5;449;13368;4;207;183;394;605;31;6;319;9991;4;113;145;513;497;28;7;185;7972;4;234;444;24;8;187;7861;4;229;462;23;9;100;4319;4;130;494;20
04.11.21;14:50:00;1;845;6858;0;2;163;6541;4;202;364;21;3;95;4191;4;136;487;22;4;112;5584;5;116;211;19;5;368;13330;4;168;144;374;585;31;6;276;9963;4;91;122;513;497;28;7;186;7956;4;234;459;24;8;190;7845;4;233;451;23;9;95;4311;4;129;461;20
04.11.21;14:45:00;1;842;6788;0;2;155;6527;4;193;364;21;3;89;4183;4;130;490;23;4;101;5574;3;106;212;19;5;358;13300;4;164;143;369;585;31;6;263;9941;4;89;115;513;497;29;7;160;7940;4;201;441;24;8;158;7829;4;199;441;24;9;76;4303;4;110;475;20
04.11.21;14:40:00;1;829;6718;0;2;193;6514;4;232;371;22;3;116;4175;4;156;486;23;4;143;5565;5;149;224;20;5;436;13270;4;194;178;383;610;32;6;312;9919;4;112;136;513;497;29;7;181;7926;4;219;431;25;8;174;7815;4;219;420;24;9;91;4296;4;125;484;21
04.11.21;14:35:00;1;856;6647;0;2;269;6498;4;314;390;23;3;167;4166;4;209;487;24;4;222;5554;5;231;231;20;5;624;13233;4;293;256;403;638;32;6;434;9892;4;168;207;513;534;29;7;266;7911;4;309;471;25;8;265;7801;4;309;459;25;9;141;4289;4;177;509;21
04.11.21;14:30:00;1;856;6577;0;2;310;6476;4;355;389;23;3;194;4152;4;237;499;24;4;248;5535;5;259;230;20;5;631;13180;4;295;259;397;625;32;6;450;9856;4;177;211;513;544;29;7;283;7889;4;321;470;26;8;278;7779;4;322;459;25;9;148;4277;4;184;513;22
04.11.21;14:25:00;1;867;6505;0;2;345;6450;4;392;394;24;3;218;4136;4;263;501;24;4;282;5514;5;294;235;21;5;672;13127;4;314;272;403;650;33;6;473;9818;4;182;229;513;532;29;7;301;7865;4;344;474;26;8;305;7755;4;345;464;25;9;165;4265;4;199;502;22
04.11.21;14:20:00;1;837;6433;0;2;381;6421;4;430;392;25;3;239;4117;4;289;500;25;4;320;5491;5;333;235;21;5;808;13072;4;386;335;407;648;33;6;587;9778;4;246;266;555;549;30;7;381;7840;4;433;461;27;8;379;7730;4;430;458;26;9;204;4251;4;243;504;23
04.11.21;14:15:00;1;829;6363;0;2;407;6389;4;456;392;26;3;256;4098;4;303;508;26;4;352;5465;5;367;239;22;5;875;13003;4;426;365;404;646;34;6;640;9728;4;262;303;547;551;30;7;451;7809;4;495;454;27;8;447;7699;4;494;465;27;9;239;4234;4;278;510;24
04.11.21;14:10:00;1;892;6292;0;2;377;6356;4;424;388;28;3;237;4076;4;282;493;26;4;336;5435;5;350;234;23;5;897;12930;4;431;368;404;642;34;6;655;9675;4;271;300;558;548;30;7;476;7771;4;524;460;28;8;476;7661;4;525;459;27;9;252;4214;4;296;512;24
04.11.21;14:05:00;1;862;6218;0;2;665;6324;4;725;403;30;3;423;4057;4;480;508;27;4;607;5407;5;632;237;24;5;1507;12855;4;770;639;410;680;34;6;1105;9620;4;493;520;567;550;30;7;774;7732;4;838;477;28;8;771;7622;4;823;457;28;9;409;4193;4;459;520;26
04.11.21;14:00:00;1;850;6147;0;2;1864;6268;4;1971;379;32;3;1195;4021;4;1282;523;28;4;1453;5356;5;1514;246;25;5;3451;12712;4;1868;1524;412;697;34;6;2991;9516;4;1474;1453;588;564;30;7;2396;7666;4;2518;471;29;8;1853;7556;4;1943;434;28;9;1008;4158;4;1085;515;27
04.11.21;13:55:00;1;510;6075;0;2;2984;6118;4;3147;401;33;3;1808;3923;4;1924;529;29;4;2151;5237;5;2241;252;25;5;6100;12421;4;3367;2717;423;689;34;6;4990;9294;4;2523;2461;594;570;30;7;3573;7473;4;3759;474;28;8;3509;7405;4;3679;453;27;9;2155;4076;4;2293;525;28